Find Kosmos-2558

NORAD ID: 53323 Int'l Des: 2022-089 Owner: TSVS Country: RU operational
LEOCIRCULARRETROGRADESSO

当前视图

正在加载3D地球...

关于 Kosmos-2558

正在加载描述...

即将过境

Passes for default location (London). Set your location on the main map for personalized predictions.

高度历史

Loading altitude history...

两行轨道根数

1 53323U 22089A 26151.54776410 .00112697 00000-0 86472-3 0 9992
2 53323 97.2262 254.9767 0001336 150.6332 209.5007 15.71734373215214
Epoch: May 31, 2026 • Age: 7 hours

当前状态

高度 364.3 km
速度 7.70 km/s
星下点 65.05°N, 94.46°W
发射日期 Aug 1, 2022
运行时间 3.8 years
类型 other

技术详情

分类 Payload
质量 400.00 kg
干质量 400.00 kg
总质量 547.00 kg
长度 3.00 m
直径 1.30 m
跨度 3.00 m
形状 Cyl + 2 Pan
制造商 NPOLO
平台类型 Karat-200
阶段状态 In Orbit
所有者/国家 TSVS/RU

Most Searched